Find Optus D2

NORAD ID: 32252 Int'l Des: 2007-044 Owner: OPTS Country: AU operational
HEOCIRCULAR

Current View

Loading 3D Globe...

About Optus D2

Description loading...

Upcoming Passes

Passes for default location (London). Set your location on the main map for personalized predictions.

Altitude History

Loading altitude history...

Two-Line Element Set

1 32252U 07044A 26151.12329083 .00000053 00000-0 00000+0 0 9999
2 32252 2.0373 82.2289 0002864 337.2921 124.8811 0.99340565 68379
Epoch: May 31, 2026 • Age: 10 hours

Current Status

Altitude 36049.9 km
Velocity 3.07 km/s
Sub-Earth Point -1.85°S, 110°W
Launch Date Oct 5, 2007
Age 18.6 years
Type other

Technical Details

Classification Payload
Mass 2350.00 kg
Dry Mass 1079.00 kg
Total Mass 2350.00 kg
Length 4.20 m
Diameter 2.30 m
Span 22.40 m
Shape Box + 2 Pan
Manufacturer OSCD
Bus Type OSC Star 2.4
Phase Status In Orbit
Owner/State OPTS/AU

Most Searched